Location: Arbon
(43.0005°N, 0.7472°E)
Time: 02:29:14
(UTC+00:00)

SR - Pass Details

Date: 08 December 2020
Orbit: 575 x 880 km, 66.7° (Epoch: 23 January)

Event Time Altitude Azimuth Distance (km) Brightness Sun altitude
Rises 17:10:12 0° 248° (WSW) 2,839 ? -8.6°
Reaches altitude 10° 17:12:48 10° 263° (W) 1,976 ? -9.1°
Maximum altitude 17:16:19 23° 316° (NW) 1,387 ? -9.7°
Drops below altitude 10° 17:20:03 10° 8° (N) 2,115 ? -10.3°
Enters shadow 17:22:13 - 20° (NNE) 2,835 ? -10.7°
